Nuiqsut, AK

12:03 AM AKDT on August 24, 2017 (GMT -0800)
Nuiqsut

Weather History for PAQT - February, 2013

Change the Weather History Date:

Monday, February 25, 2013

  Actual Average (PAKU) Record (PAKU)
Temperature  
Mean Temperature -22 °F -  
Max Temperature -17 °F -9 °F 37 °F (1989)
Min Temperature -25 °F -17 °F -47 °F (1986)
Degree Days  
Heating Degree Days 86    
Moisture  
Dew Point -27 °F    
Average Humidity 79    
Maximum Humidity 83    
Minimum Humidity 76    
Precipitation  
Precipitation 0.00 in - - ()
Sea Level Pressure  
Sea Level Pressure 30.05 in    
Wind  
Wind Speed 19 mph (ENE)    
Max Wind Speed 22 mph    
Max Gust Speed -    
Visibility 1 miles    
Events Fog    
Averages and records for this station are not official NWS values.
T = Trace of Precipitation, MM = Missing Value Source: NWS Daily Summary

Daily Weather History Graph

Daily Weather History Graph

Search for Another Location

Airport or City:

Trip Planner

Search our weather history database for the weather conditions in past years. The results will help you decide how hot, cold, wet, or windy it might be!

Date:

Astronomy

Feb. 25, 2013 Rise Set
Actual Time 8:48 AM AKST 5:47 PM AKST
Civil Twilight 7:44 AM AKST 6:51 PM AKST
Nautical Twilight 6:33 AM AKST 8:02 PM AKST
Astronomical Twilight 5:19 AM AKST 9:17 PM AKST
Moon 6:53 PM AKST (2/25) 7:57 AM AKST (2/25)
Length of Visible Light 11h 06m
Length of Day
8h 58m
Full, 100% of the Moon is Illuminated
Feb 25
Full
Mar 4
Last Quarter
Mar 11
New
Mar 19
First Quarter
Mar 27
Full

Hourly Weather History & Observations

Time (AKST) Temp. Windchill Dew Point Humidity Pressure Visibility Wind Dir Wind Speed Gust Speed Precip Events Conditions
12:25 AM -25.6 °F -56.7 °F -29.2 °F 83% 30.02 in 1.0 mi ENE 21.9 mph - N/A   Mist
12:53 AM -25.1 °F -54.6 °F -29.9 °F 78% 30.03 in 1.5 mi ENE 19.6 mph - N/A   Haze
1:17 AM -25.6 °F -53.0 °F -29.2 °F 83% 30.03 in 2.0 mi ENE 16.1 mph - N/A   Mostly Cloudy
1:53 AM -24.0 °F -50.9 °F -29.0 °F 77% 30.03 in 1.5 mi ENE 16.1 mph - N/A   Haze
3:53 AM -24.0 °F -53.2 °F -27.9 °F 82% 30.04 in 1.2 mi ENE 19.6 mph - N/A   Overcast
4:53 AM -24.0 °F -52.5 °F -29.0 °F 77% 30.04 in 1.0 mi ENE 18.4 mph - N/A   Haze
5:53 AM -24.0 °F -52.5 °F -29.0 °F 77% 30.05 in 1.8 mi NE 18.4 mph - N/A   Haze
6:02 AM -23.8 °F -51.5 °F -29.2 °F 76% 30.04 in 2.0 mi NE 17.3 mph - N/A   Haze
6:18 AM -23.8 °F -52.2 °F -29.2 °F 76% 30.03 in 1.5 mi NE 18.4 mph - N/A   Haze
6:53 AM -24.0 °F -51.7 °F -29.0 °F 77% 30.04 in 1.8 mi NE 17.3 mph - N/A   Haze
7:53 AM -23.1 °F -50.5 °F -27.9 °F 78% 30.04 in 1.5 mi NE 17.3 mph - N/A   Haze
8:53 AM -23.1 °F -51.3 °F -27.9 °F 78% 30.04 in 0.8 mi ENE 18.4 mph - N/A   Haze
9:53 AM -22.0 °F -51.9 °F -27.0 °F 77% 30.05 in 0.8 mi ENE 21.9 mph - N/A   Haze
10:53 AM -22.0 °F -51.3 °F -26.0 °F 82% 30.05 in 0.5 mi ENE 20.7 mph - N/A Fog Light Freezing Fog
11:53 AM -22.0 °F -51.3 °F -26.0 °F 82% 30.06 in 0.5 mi ENE 20.7 mph - N/A Fog Light Freezing Fog
12:53 PM -22.0 °F -51.9 °F -26.0 °F 82% 30.06 in 0.5 mi ENE 21.9 mph - N/A Fog Light Freezing Fog
1:53 PM -20.9 °F -50.5 °F -26.0 °F 77% 30.06 in 0.5 mi ENE 21.9 mph - N/A   Haze
2:53 PM -20.9 °F -49.8 °F -25.1 °F 81% 30.06 in 0.5 mi ENE 20.7 mph - N/A Fog Light Freezing Fog
3:53 PM -20.9 °F -48.5 °F -25.1 °F 81% 30.06 in 0.8 mi ENE 18.4 mph - N/A   Mist
4:53 PM -20.9 °F -49.2 °F -26.0 °F 77% 30.07 in 0.5 mi ENE 19.6 mph - N/A   Haze
5:39 PM -20.2 °F -46.8 °F -25.6 °F 76% 30.06 in 1.0 mi ENE 17.3 mph - N/A   Haze
5:53 PM -20.9 °F -47.0 °F -26.0 °F 77% 30.07 in 1.0 mi ENE 16.1 mph - N/A   Haze
6:37 PM -22.0 °F -49.1 °F -25.6 °F 83% 30.06 in 2.0 mi ENE 17.3 mph - N/A   Overcast
6:53 PM -22.0 °F -48.4 °F -26.0 °F 82% 30.07 in 2.5 mi ENE 16.1 mph - N/A   Overcast
7:53 PM -22.0 °F -47.5 °F -26.0 °F 82% 30.07 in 2.0 mi ENE 15.0 mph - N/A   Overcast
8:53 PM -20.9 °F -46.2 °F -26.0 °F 77% 30.06 in 2.5 mi ENE 15.0 mph - N/A   Haze
9:53 PM -18.9 °F -45.9 °F -23.1 °F 81% 30.07 in 2.5 mi ENE 18.4 mph - N/A   Overcast
10:53 PM -18.0 °F -42.5 °F -22.0 °F 82% 30.07 in 2.0 mi ENE 15.0 mph - N/A   Overcast
11:53 PM -17.0 °F -41.1 °F -22.0 °F 78% 30.08 in 2.5 mi East 15.0 mph - N/A   Haze